[[{"header":{"parameterUnit":"m.s-1","parameterCategory":1,"la1":30.2991,"la2":30.254,"lo1":-89.0895,"lo2":-89.0444,"dy":0.0017,"dx":0.0017,"nx":28,"ny":28,"refTime":"2023-08-17T03:00:00:Z","depth":0,"parameterNumber":2,"parameterNumberName":"U-component_of_WINDS"},"data":[0,0,0,0,0,0,0,0,0,0,0,0,0,0,0,0,0,0,0,0,0,0,0,0,0,0,0,0,0,0,0,0,0,0,0,0,0,0,0,0,0,0,0,0,0,0,0,0,0,0,0,0,0,0,0,0,0,0,4.2704,4.2704,0,4.2729,4.2729,4.2729,4.2652,4.2649,4.2647,4.2645,4.267,4.2673,4.2676,0,0,0,0,0,0,0,0,0,0,0,0,0,4.2587,4.2589,4.2704,4.2704,4.2704,4.2729,4.2729,4.2729,4.2652,4.2649,4.2646,4.2644,4.2669,4.2672,4.2676,0,0,0,0,0,0,0,0,0,0,0,0,0,4.2627,4.259,4.2704,4.2669,4.2666,4.2729,4.2729,4.2729,4.2653,4.2649,4.2646,4.2642,4.2668,4.2672,4.2676,4.2774,0,0,4.2689,4.2691,0,0,0,0,0,0,0,0,4.2625,4.2632,4.2674,4.2671,4.2668,4.2683,4.2697,4.2744,4.2654,4.2658,4.2645,4.2641,4.2677,4.2681,4.2693,4.2775,4.2776,4.269,4.2692,4.2694,4.2696,0,0,0,0,0,0,0,4.2622,4.263,4.2713,4.2674,4.2671,4.2651,4.2653,4.2705,4.2687,4.2657,4.2652,4.2656,4.2675,4.2689,4.2693,4.2776,4.269,4.2694,4.2696,4.2698,4.2935,4.2938,0,0,0,0,0,0,4.2624,4.2628,4.2713,4.2714,4.2637,4.2656,4.2658,4.2682,4.2686,4.2683,4.2659,4.2652,4.2683,4.2688,4.2694,4.2804,4.2694,4.2698,4.2701,4.2931,4.2935,4.2939,0,0,0,0,0,0,4.2622,4.2633,4.2712,4.267,4.2678,4.2662,4.2689,4.2684,4.2698,4.2687,4.2684,4.2676,4.2681,4.2688,4.2753,4.2804,4.27,4.2704,4.2927,4.2932,4.2937,4.3028,0,0,0,0,0,0,4.2619,4.2632,4.267,4.2671,4.2681,4.2772,4.2693,4.2688,4.2706,4.2697,4.2703,4.27,4.2679,4.2747,4.2758,4.2808,4.2708,4.2922,4.2929,4.2936,4.302,4.3036,4.3049,0,0,0,0,0,4.2615,4.2695,4.2672,4.2683,4.2728,4.2775,4.278,4.2754,4.2711,4.2747,4.274,4.27,4.2798,4.2755,4.2766,4.2818,4.2918,4.2927,4.2935,4.3013,4.3033,4.3049,0,0,0,0,0,0,4.2701,4.2695,4.2669,4.2752,4.2765,4.2762,4.2807,4.2775,4.28,4.2791,4.2757,4.2759,4.283,4.2831,4.2784,4.291,4.285,4.2861,4.2906,4.2924,4.2938,4.2935,4.2711,0,0,0,0,0,4.2729,4.2769,4.2762,4.2835,4.2843,4.2824,4.2844,4.2822,4.2834,4.2839,4.2836,4.2848,4.2881,4.2903,4.2933,4.3021,4.3019,4.3062,4.3077,4.3089,4.3097,4.3139,4.3157,4.2967,4.2967,4.2967,0,0,4.2789,4.279,4.2817,4.2853,4.2859,4.2899,4.2829,4.2876,4.2904,4.2846,4.2906,4.2905,4.2916,4.2992,4.3026,4.2995,4.315,4.3099,4.3109,4.3111,4.315,4.3168,4.3184,4.2972,4.2971,4.2971,0,0,4.2916,4.2923,4.2983,4.2991,4.3002,4.2989,4.3003,4.3005,4.3001,4.3062,4.3017,4.3051,4.311,4.3118,4.313,4.3259,4.3222,4.327,4.3344,4.3385,4.34,4.3413,4.3455,4.347,4.3279,4.328,4.328,0,4.2988,4.3047,4.3018,4.3066,4.3081,4.303,4.3088,4.3098,4.3119,4.313,4.3096,4.3165,4.317,4.3245,4.3276,4.3289,4.3302,4.3267,4.3401,4.3413,4.3425,4.3464,4.348,4.3285,4.3284,4.3284,4.3283,0,4.3132,4.3174,4.3221,4.324,4.3261,4.3315,4.3292,4.3317,4.3294,4.3284,4.3344,4.3348,4.3375,4.3393,4.3371,4.3464,4.3444,4.3407,4.3345,4.3449,4.3485,4.35,4.3293,4.3291,4.3289,4.3288,0,0,4.3313,4.3314,4.3331,4.3337,4.3345,4.3376,4.3427,4.3453,4.3473,4.349,4.3529,4.3579,4.3543,4.3556,4.3535,4.3572,4.3668,4.3529,4.3529,4.3551,4.3766,4.379,4.3809,4.3646,4.3649,4.3651,4.3763,0,4.3434,4.3519,4.3493,4.3578,4.3614,4.3565,4.3608,4.3617,4.3609,4.3638,4.3629,4.3663,4.3616,4.3623,4.3658,4.3649,4.371,4.3642,4.3679,4.368,4.3673,4.3828,4.3855,4.3961,4.3777,4.378,4.3782,0,4.3586,4.3606,4.3694,4.3692,4.3706,4.3746,4.3766,4.3795,4.3803,4.3795,4.3809,4.378,4.3827,4.3769,4.3832,4.3786,4.38,4.3798,4.3802,4.38,4.3734,4.3827,4.3995,4.4009,4.3804,4.3803,4.3801,0,4.3703,4.3752,4.381,4.3818,4.3819,4.3847,4.3848,4.3853,4.387,4.3888,4.3897,4.3922,4.3935,4.3954,4.3931,4.3891,4.3996,4.3937,4.3987,4.3988,4.4008,4.4007,4.4176,4.4026,4.4025,4.4025,4.4025,0,4.3838,4.3893,4.3861,4.3897,4.3956,4.3926,4.3985,4.3981,4.3986,4.4018,4.398,4.4011,4.3981,4.4009,4.3992,4.4044,4.4052,4.4044,4.4038,4.4045,4.4045,4.4051,4.4041,4.4029,4.4028,4.4028,4.4027,0,4.3977,4.3959,4.4017,4.4013,4.4013,4.4056,4.4051,4.4083,4.4072,4.4114,4.4122,4.4105,4.4135,4.4116,4.4148,4.4136,4.4203,4.419,4.42,4.4194,4.4244,4.4238,4.442,4.444,4.4281,4.4283,4.4284,0,4.4062,4.4102,4.4101,4.4119,4.4123,4.4154,4.417,4.4143,4.4161,4.4172,4.4201,4.4229,4.4249,4.43,4.429,4.4314,4.4297,4.436,4.43,4.4305,4.4293,4.4288,4.429,4.437,4.4372,4.4373,4.4375,0,4.4213,4.4202,4.4226,4.4246,4.4266,4.4281,4.4293,4.4311,4.4283,4.4305,4.4335,4.4351,4.4382,4.4409,4.4428,4.4429,4.4396,4.4394,4.4406,4.4411,4.4413,4.4408,4.4227,4.4389,4.4387,4.4386,4.4386,4.4385,4.4325,4.4356,4.4359,4.4387,4.4392,4.4404,4.4432,4.4424,4.4449,4.4471,4.4454,4.4489,4.4494,4.4516,4.4521,4.4548,4.4522,4.4541,4.4545,4.4549,4.4553,4.4413,4.4552,4.4551,4.4551,4.4551,4.455,0,4.447,4.4469,4.4494,4.4511,4.4532,4.45,4.4511,4.453,4.4562,4.4569,4.4589,4.4622,4.4648,4.464,4.4662,4.4684,4.4669,4.469,4.4686,4.4686,4.4577,4.4562,4.4701,4.4701,4.4701,4.4701,4.4701,4.4701,4.4547,4.4598,4.4586,4.4639,4.4638,4.4671,4.4679,4.4689,4.4694,4.4732,4.4753,4.4747,4.4747,4.4769,4.479,4.4787,4.4795,4.482,4.4811,4.4709,4.4694,4.468,4.4665,4.4823,4.4824,4.4917,4.4918,4.4918]},{"header":{"parameterUnit":"m.s-1","parameterCategory":1,"la1":30.2991,"la2":30.254,"lo1":-89.0895,"lo2":-89.0444,"dy":0.0017,"dx":0.0017,"nx":28,"ny":28,"refTime":"2023-08-17T03:00:00:Z","depth":0,"parameterNumber":3,"parameterNumberName":"V-component_of_WINDS"},"data":[0,0,0,0,0,0,0,0,0,0,0,0,0,0,0,0,0,0,0,0,0,0,0,0,0,0,0,0,0,0,0,0,0,0,0,0,0,0,0,0,0,0,0,0,0,0,0,0,0,0,0,0,0,0,0,0,0,0,4.5229,4.5231,0,4.5346,4.5348,4.5349,4.5318,4.5316,4.5314,4.5311,4.5425,4.543,4.5435,0,0,0,0,0,0,0,0,0,0,0,0,0,4.4971,4.4976,4.5229,4.5231,4.5232,4.5346,4.5348,4.5349,4.5319,4.5316,4.5313,4.531,4.5423,4.5429,4.5435,0,0,0,0,0,0,0,0,0,0,0,0,0,4.5085,4.4978,4.5229,4.5231,4.5232,4.5346,4.5348,4.535,4.5319,4.5316,4.5312,4.5309,4.5421,4.5429,4.5436,4.5553,0,0,4.546,4.5463,0,0,0,0,0,0,0,0,4.5079,4.5095,4.5229,4.5231,4.5233,4.5314,4.5298,4.5418,4.532,4.5286,4.5311,4.5307,4.539,4.54,4.543,4.5559,4.5564,4.5461,4.5465,4.5469,4.5471,0,0,0,0,0,0,0,4.5071,4.5089,4.5275,4.5231,4.5233,4.5223,4.5235,4.5321,4.5356,4.5289,4.5287,4.5301,4.5391,4.5422,4.5432,4.5565,4.5461,4.5467,4.5472,4.5475,4.5793,4.5796,0,0,0,0,0,0,4.5063,4.5083,4.5272,4.5279,4.5146,4.5231,4.5244,4.5291,4.5355,4.5361,4.5304,4.5299,4.5411,4.5423,4.5436,4.5575,4.5469,4.5476,4.548,4.5789,4.5794,4.5798,0,0,0,0,0,0,4.5057,4.508,4.5267,4.5181,4.5204,4.5239,4.5292,4.5296,4.5327,4.5367,4.5372,4.5331,4.5409,4.5425,4.5524,4.5579,4.5479,4.5487,4.5785,4.579,4.5796,4.5856,0,0,0,0,0,0,4.505,4.5078,4.5125,4.5182,4.5208,4.5356,4.5295,4.53,4.5342,4.5337,4.5393,4.5399,4.5407,4.5513,4.5532,4.5588,4.5493,4.578,4.5787,4.5794,4.5849,4.5863,4.5875,0,0,0,0,0,4.5041,4.5137,4.5128,4.515,4.5268,4.5359,4.5374,4.5383,4.5346,4.5392,4.5417,4.5397,4.557,4.5523,4.5545,4.5604,4.5776,4.5785,4.5793,4.5844,4.586,4.5875,0,0,0,0,0,0,4.5083,4.5144,4.5135,4.5252,4.5301,4.5354,4.5412,4.5401,4.5459,4.5452,4.5459,4.5472,4.5573,4.5598,4.5545,4.5719,4.5667,4.5681,4.5698,4.5715,4.5727,4.5718,4.5499,0,0,0,0,0,4.5107,4.5178,4.5226,4.5325,4.535,4.5377,4.5417,4.542,4.5469,4.5489,4.5521,4.5569,4.5633,4.5675,4.5737,4.5853,4.5863,4.5904,4.5917,4.5927,4.5938,4.5998,4.6016,4.5826,4.5826,4.5825,0,0,4.5155,4.5197,4.5241,4.5334,4.5372,4.5443,4.5394,4.5472,4.5523,4.55,4.5596,4.5621,4.5674,4.5781,4.583,4.5805,4.5992,4.5938,4.5946,4.5951,4.6008,4.6026,4.6042,4.5831,4.583,4.5829,0,0,4.5279,4.5319,4.5404,4.5444,4.5502,4.5519,4.554,4.5595,4.5611,4.5707,4.5691,4.5751,4.5863,4.59,4.5934,4.607,4.6053,4.609,4.6156,4.6215,4.623,4.6243,4.6289,4.6306,4.6101,4.6101,4.6101,0,4.5331,4.5439,4.5449,4.5528,4.5568,4.5552,4.5637,4.5674,4.5749,4.5776,4.5748,4.5887,4.5921,4.6036,4.6069,4.6097,4.6119,4.6083,4.6227,4.6241,4.6253,4.6297,4.6315,4.6105,4.6105,4.6104,4.6104,0,4.5498,4.5574,4.5635,4.571,4.5757,4.5838,4.5858,4.5904,4.5903,4.5922,4.6018,4.6059,4.6128,4.6155,4.6154,4.6269,4.6252,4.6226,4.6174,4.6275,4.6316,4.6334,4.6111,4.6109,4.6108,4.6107,0,0,4.5652,4.5731,4.5753,4.5786,4.5849,4.5906,4.5985,4.6054,4.6092,4.6144,4.6208,4.6303,4.6279,4.6317,4.6319,4.6371,4.6473,4.6338,4.6339,4.636,4.6599,4.6617,4.6637,4.6463,4.6466,4.6469,4.6594,0,4.578,4.5922,4.5933,4.606,4.6127,4.6112,4.6181,4.6225,4.6245,4.6303,4.6323,4.639,4.6354,4.6377,4.6427,4.645,4.6521,4.6442,4.652,4.6523,4.6506,4.6659,4.6679,4.6795,4.661,4.6613,4.6615,0,4.5948,4.6006,4.614,4.6192,4.6221,4.6283,4.6345,4.6402,4.6451,4.6461,4.6504,4.6499,4.6577,4.6523,4.6629,4.6575,4.6608,4.6623,4.6628,4.6634,4.6574,4.6667,4.6833,4.6849,4.6641,4.6639,4.6637,0,4.6044,4.6156,4.625,4.6278,4.6342,4.6385,4.6413,4.6458,4.6498,4.6552,4.6578,4.664,4.6673,4.672,4.673,4.6691,4.6835,4.6784,4.6844,4.6843,4.6874,4.6871,4.7045,4.6898,4.6898,4.6897,4.6897,0,4.6184,4.6266,4.6294,4.6351,4.6442,4.6452,4.654,4.6565,4.6605,4.6665,4.6656,4.6712,4.6723,4.6781,4.6789,4.6874,4.689,4.6898,4.6899,4.6898,4.6897,4.6919,4.691,4.6902,4.6901,4.69,4.6899,0,4.6306,4.6329,4.643,4.6481,4.6496,4.656,4.6602,4.6656,4.6674,4.675,4.6769,4.6796,4.6863,4.6879,4.6958,4.6964,4.7064,4.7058,4.7048,4.7047,4.7105,4.7099,4.7297,4.7322,4.7161,4.7162,4.7164,0,4.6394,4.6457,4.6515,4.6556,4.6586,4.6651,4.6692,4.6704,4.6746,4.6806,4.6852,4.6918,4.6971,4.7079,4.7104,4.7164,4.7158,4.7223,4.7167,4.7163,4.7156,4.7152,4.7157,4.7233,4.7235,4.7237,4.7238,0,4.6546,4.6553,4.6614,4.6678,4.6728,4.6778,4.6827,4.6859,4.6877,4.6925,4.6994,4.7036,4.7117,4.7182,4.7242,4.7267,4.7255,4.7256,4.7272,4.7271,4.7262,4.7265,4.7075,4.7251,4.7249,4.7248,4.7248,4.7247,4.6652,4.6706,4.6755,4.6822,4.686,4.6905,4.6958,4.6983,4.7042,4.711,4.7113,4.7187,4.7232,4.7311,4.734,4.7397,4.7376,4.7401,4.7407,4.7412,4.7417,4.7255,4.7408,4.7408,4.7407,4.7407,4.7407,0,4.6801,4.6832,4.6894,4.6962,4.7014,4.7,4.7052,4.7096,4.7163,4.7206,4.7259,4.7337,4.74,4.743,4.7491,4.753,4.7526,4.7546,4.7542,4.7548,4.7433,4.7411,4.7548,4.7548,4.7548,4.7548,4.7548,4.7548,4.6885,4.6976,4.6989,4.7096,4.7126,4.7201,4.7231,4.7271,4.7306,4.7395,4.7447,4.7467,4.7505,4.7568,4.7624,4.7631,4.7652,4.7675,4.7679,4.757,4.7556,4.7542,4.7522,4.768,4.768,4.7789,4.779,4.7791]}]]